GEFSSE_con_probscp_030.txt.gz
Probability
0 0 0 0 0 0 0 0 0 0 0 0 0 0 0 0 0 0 0 0 0 0 0 0 0 0 0 0 0 0 0 0 0 0 0 0 0 0 0 0 0 0 0
0 0 0 0 0 0 0 0 0 0 0 0 0 0 0 0 0 0 0 0 0 0 0 0 0 0 0 0 0 0 0 0 0 0 0 0 0 0 0 0 0 0 0
0 0 0 0 0 0 0 0 0 0 0 0 0 0 0 0 0 0 0 0 0 0 0 0 0 0 0 0 0 0 0 0 0 0 0 0 0 0 0 0 0 0 0
0 0 0 0 0 0 0 0 0 0 0 0 0 0 0 0 0 0 0 0 0 0 0 0 0 0 0 0 0 0 0 0 0 0 0 0 0 0 0 0 0 0 0
0 0 0 1 1 1 0 0 0 0 0 0 0 0 0 0 0 0 0 0 0 0 0 0 0 0 0 0 0 0 0 0 0 0 0 0 0 0 0 0 0 0 0
0 0 1 2 3 2 1 0 0 0 0 0 0 0 0 0 0 0 0 0 0 0 0 0 0 0 0 0 0 0 0 0 0 0 0 0 0 0 0 0 0 0 0
0 0 2 4 7 7 6 3 1 1 0 0 0 0 0 0 0 0 0 0 0 0 0 0 0 0 0 0 0 0 0 0 0 0 0 0 0 0 0 1 1 0 0
0 1 4 9 12 13 11 7 2 1 1 0 0 0 0 0 0 0 0 0 0 0 0 0 0 0 0 0 0 0 0 0 0 0 0 0 0 0 1 2 2 2 1
1 3 7 10 12 13 11 7 4 2 1 0 0 0 0 0 0 0 0 0 0 0 0 0 0 0 0 0 0 0 0 0 0 0 0 0 0 0 1 4 7 7 5
1 3 5 6 6 6 5 4 3 2 1 0 0 0 0 0 0 0 0 0 0 0 0 0 0 0 0 0 0 0 0 0 0 0 0 0 0 0 2 11 25 28 24
1 2 3 4 3 2 2 1 1 1 0 0 0 0 0 0 0 0 0 0 0 0 1 2 2 2 0 0 0 0 0 0 0 0 0 0 0 1 6 26 51 60 55
3 3 4 5 5 4 2 0 0 0 0 0 0 0 1 0 0 0 0 0 0 1 2 5 7 5 2 1 1 0 0 0 0 0 0 1 3 6 17 42 71 81 77
9 7 8 9 9 6 2 0 0 0 0 0 0 0 0 0 0 0 0 0 1 4 8 13 15 10 4 2 1 0 0 0 0 0 0 4 11 21 35 58 80 87 83
31 23 17 17 13 5 1 1 1 0 0 0 0 0 1 2 2 2 2 3 7 17 27 30 27 18 8 3 2 1 0 0 0 1 1 9 24 41 56 72 86 89 86
64 54 41 34 24 14 11 12 11 7 5 4 4 4 7 12 14 12 11 15 26 43 55 54 45 30 16 7 6 6 4 2 2 3 5 14 36 57 71 81 89 90 87
87 81 72 61 50 42 42 44 42 35 29 27 25 22 28 40 43 38 36 42 56 71 78 72 61 47 33 23 19 17 13 9 6 6 10 19 39 63 77 85 90 91 91
94 93 90 84 78 74 76 78 77 72 66 61 57 54 61 73 77 71 69 73 82 88 89 83 73 63 51 40 33 27 21 14 9 9 13 22 38 60 76 85 91 94 95
94 94 92 90 87 87 90 92 93 90 84 78 73 74 80 88 92 91 90 92 94 94 92 88 82 71 58 48 39 29 20 13 9 8 12 21 35 54 69 78 86 92 94
91 90 87 85 85 87 89 90 91 89 84 78 71 68 72 81 89 93 95 96 95 92 90 87 82 71 58 48 38 25 14 9 7 7 9 13 24 40 54 65 73 79 82
82 81 80 80 82 85 85 86 88 88 86 81 72 63 61 68 80 88 93 94 91 87 84 79 73 65 55 47 36 22 11 8 7 7 6 6 10 20 32 45 55 60 60
66 67 71 74 75 77 78 78 81 83 84 84 81 75 68 67 74 82 88 89 87 82 77 72 66 59 52 47 37 20 9 6 7 6 5 3 3 5 11 22 32 38 37
45 47 51 54 58 61 62 61 62 68 74 79 83 83 79 75 76 80 82 82 80 75 72 69 64 59 53 47 36 20 8 5 4 4 3 3 2 1 2 6 12 16 17
25 26 28 32 37 40 38 36 40 50 60 68 72 75 77 76 76 78 78 75 71 68 66 65 62 59 53 42 28 18 9 5 3 1 1 1 1 0 0 0 1 3 3
14 18 23 26 26 25 22 20 24 34 42 48 52 56 60 64 66 69 71 68 65 63 61 58 55 54 47 33 19 13 9 5 2 1 0 0 1 0 0 0 0 0 0
12 19 28 31 27 23 18 14 15 18 21 24 26 29 32 37 45 53 58 62 62 61 58 53 48 44 38 26 16 11 7 4 3 1 0 0 0 0 0 0 0 0 0
11 19 29 32 30 25 20 15 10 8 9 10 10 11 12 16 27 40 51 58 61 62 58 51 43 38 32 23 15 10 6 4 4 2 1 0 0 0 0 0 0 0 0

GEFSSE_con_probscp_036.txt.gz
Probability
0 0 0 0 0 0 0 0 0 0 0 0 0 0 0 0 0 0 0 0 0 0 0 0 0 0 0 0 0 0 0 0 0 0 0 0 0 0 0 0 0 0 0
0 0 0 0 0 0 0 0 0 0 0 0 0 0 0 0 0 0 0 0 0 0 0 0 0 0 0 0 0 0 0 0 0 0 0 0 0 0 0 0 0 0 0
0 0 0 0 0 0 0 0 0 0 0 0 0 0 0 0 0 0 0 0 0 0 0 0 0 0 0 0 0 0 0 0 0 0 0 0 0 0 0 0 0 0 0
0 0 0 0 0 0 0 0 0 0 0 0 0 0 0 0 0 0 0 0 0 0 0 0 0 0 0 0 0 0 0 0 0 0 0 0 0 0 0 0 0 0 0
0 0 0 0 0 0 0 0 0 0 0 0 0 0 0 0 0 0 0 0 0 0 0 0 0 0 0 0 0 0 0 0 0 0 0 0 0 0 0 0 0 0 0
0 0 0 0 1 1 1 0 0 0 0 0 0 0 0 0 0 0 0 0 0 0 0 0 0 0 0 0 0 0 0 0 0 0 0 0 0 0 0 0 0 0 0
0 0 0 1 2 3 2 1 0 0 0 0 0 0 0 0 0 0 0 0 0 0 0 0 0 0 0 0 0 0 0 0 0 0 0 0 0 0 0 0 0 0 0
0 0 0 2 3 4 3 1 0 0 0 0 0 0 0 0 0 0 0 0 0 0 0 0 0 0 0 0 0 0 0 0 0 0 0 0 0 0 0 0 0 0 0
0 0 0 1 2 3 2 1 0 0 0 0 0 0 0 0 0 0 0 0 0 0 0 0 0 0 0 0 0 0 0 0 0 0 0 0 0 0 0 0 0 0 0
0 0 1 1 1 2 3 5 5 3 1 1 0 0 0 0 0 0 0 0 0 0 0 0 0 0 0 0 0 0 0 0 0 0 0 0 0 0 0 0 0 0 0
1 1 3 4 5 6 10 14 14 9 5 4 2 1 0 0 0 0 0 0 0 0 0 0 0 0 0 0 0 0 0 0 0 0 0 0 0 0 0 0 0 0 0
2 2 4 6 10 17 24 26 23 18 13 10 7 3 1 0 0 0 0 0 0 0 0 0 0 0 1 1 1 1 1 1 1 1 0 0 1 1 1 0 0 0 0
1 1 3 7 15 26 35 34 31 29 25 20 15 10 6 5 4 3 2 1 1 2 2 2 2 2 3 5 5 5 4 3 2 2 1 1 1 2 1 0 0 0 0
0 0 3 10 19 28 33 31 32 37 36 31 28 25 25 23 19 16 13 10 7 8 9 9 7 7 9 11 11 10 7 4 3 3 2 1 1 1 1 0 0 0 0
2 2 6 15 23 28 29 26 27 31 33 32 31 36 45 47 40 33 28 24 21 22 25 27 23 20 19 18 17 14 10 6 4 3 2 1 0 0 0 0 0 0 1
9 9 10 16 23 27 28 25 20 21 23 22 23 32 47 57 55 48 42 41 41 43 46 48 44 38 34 28 23 19 14 10 7 3 2 2 1 1 0 0 0 0 1
21 20 18 18 21 25 27 24 19 17 19 21 22 28 40 53 61 61 59 60 62 63 63 61 58 54 48 41 33 25 19 16 13 7 5 5 5 4 2 2 3 3 2
36 34 32 30 30 32 32 30 28 29 31 33 36 41 46 55 66 72 74 75 76 77 74 71 67 62 58 54 46 34 27 25 21 14 9 9 9 6 3 4 5 6 5
52 51 49 48 48 48 46 43 44 46 46 46 50 55 57 61 69 77 81 81 81 83 82 78 72 65 61 57 48 38 33 31 25 16 10 9 8 5 3 2 4 6 7
58 56 53 50 49 48 49 49 51 53 51 49 51 54 55 56 61 70 78 80 80 82 82 78 71 64 58 52 42 34 31 29 24 16 10 8 6 4 2 2 3 7 10
43 41 38 33 31 33 37 39 41 41 39 37 37 38 38 39 42 52 63 68 71 75 75 73 68 61 55 51 43 33 26 21 18 14 11 8 5 4 4 4 6 11 16
22 21 19 17 17 20 23 25 26 24 21 19 19 19 19 20 22 29 39 48 56 62 64 64 62 55 50 49 46 35 22 14 10 9 8 6 5 4 4 4 7 11 16
10 9 9 10 11 12 14 17 17 13 9 7 6 6 6 7 8 12 19 28 37 46 52 55 54 48 42 39 38 30 18 9 5 3 2 2 3 3 3 3 4 7 9
3 4 5 6 7 8 10 13 12 8 4 2 1 1 1 1 2 4 8 13 20 28 36 41 44 41 37 33 29 23 14 7 4 1 1 0 1 2 2 3 3 3 3
0 1 2 4 4 5 8 9 6 3 1 0 0 0 0 0 0 1 3 5 9 13 17 25 33 37 38 36 32 25 16 9 6 4 2 1 1 1 1 1 2 1 1
0 1 2 3 3 4 6 6 3 1 0 0 0 0 0 0 0 0 1 2 4 5 7 15 26 35 39 40 36 29 22 14 9 6 3 2 2 1 0 0 1 0 0

GEFSSE_con_probscp_042.txt.gz
Probability
0 0 0 0 0 0 0 0 0 0 0 0 0 0 0 0 0 0 0 0 0 0 0 0 0 0 0 0 0 0 0 0 0 0 0 0 0 0 0 0 0 0 0
0 0 0 0 0 0 0 0 0 0 0 0 0 0 0 0 0 0 0 0 0 0 0 0 0 0 0 0 0 0 0 0 0 0 0 0 0 0 0 0 0 0 0
0 0 0 0 0 0 0 0 0 0 0 0 0 0 0 0 0 0 0 0 0 0 0 0 0 0 0 0 0 0 0 0 0 0 0 0 0 0 0 0 0 0 0
0 0 0 0 0 0 0 0 0 0 0 0 0 0 0 0 0 0 0 0 0 0 0 0 0 0 0 0 0 0 0 0 0 0 0 0 0 0 0 0 0 0 0
0 0 0 0 0 0 0 0 0 0 0 0 0 0 0 0 0 0 0 0 0 0 0 0 0 0 0 0 0 0 0 0 0 0 0 0 0 0 0 0 0 0 0
0 0 0 0 0 0 0 0 0 0 0 0 0 0 0 0 0 0 0 0 0 0 0 0 0 0 0 0 0 0 0 0 0 0 0 0 0 0 0 0 0 0 0
0 0 0 0 0 0 0 0 0 0 0 0 0 0 0 0 0 0 0 0 0 0 0 0 0 0 0 0 0 0 0 0 0 0 0 0 0 0 0 0 0 0 0
0 0 0 0 0 0 0 0 0 0 0 0 0 0 0 0 0 0 0 0 0 0 0 0 0 0 0 0 0 0 0 0 0 0 0 0 1 0 0 0 0 0 0
0 0 0 0 0 0 0 0 0 0 0 0 0 0 0 0 0 0 0 0 0 0 0 0 0 0 0 0 0 0 0 0 0 0 0 2 4 3 0 0 0 0 0
0 0 0 0 0 0 0 0 0 0 0 0 0 0 0 0 0 0 1 2 1 0 0 0 0 0 0 0 1 1 0 0 0 0 1 6 10 6 1 0 0 0 0
0 0 0 0 0 0 0 0 0 0 0 0 1 2 1 0 0 0 3 6 4 1 0 0 0 0 0 1 3 3 1 0 0 0 5 14 16 8 1 0 0 0 0
1 0 0 0 0 0 0 0 1 2 2 2 3 5 4 3 2 2 5 8 6 1 0 1 1 1 1 2 4 5 3 1 1 1 11 26 24 8 1 0 0 0 0
1 0 0 1 1 1 1 1 3 5 6 6 6 8 9 10 9 7 9 10 9 9 9 10 10 7 5 4 4 4 5 6 6 7 19 33 28 11 2 0 0 0 0
1 0 1 2 3 5 6 6 5 6 8 9 9 9 11 15 16 17 22 23 21 24 29 31 31 25 20 14 9 7 11 13 13 17 28 37 32 17 5 1 1 1 1
2 2 4 6 9 14 17 15 10 8 9 11 11 9 10 14 17 23 34 40 39 42 49 54 55 53 48 39 29 24 24 24 22 26 36 43 39 26 12 6 5 5 5
5 6 8 12 18 26 28 23 15 11 11 12 11 11 11 13 17 24 33 43 49 56 66 69 70 74 74 68 59 51 47 42 37 38 43 47 45 34 23 15 12 13 13
7 8 10 16 25 32 32 25 17 13 12 13 13 13 14 15 19 26 32 40 53 68 77 80 81 84 85 85 81 74 67 59 54 50 49 50 47 40 32 25 22 23 23
9 10 12 17 24 31 31 26 21 17 16 16 15 14 15 14 17 25 33 42 57 69 76 81 86 87 88 88 87 80 71 65 60 53 48 49 51 47 40 33 31 32 33
16 17 20 23 27 31 31 29 25 22 19 15 13 13 12 10 10 15 22 34 48 58 64 73 81 86 90 89 84 76 68 63 58 48 42 44 50 49 41 35 34 35 35
32 33 35 35 34 33 31 28 24 19 14 10 9 8 7 5 5 7 11 19 30 40 51 63 71 80 86 86 81 74 68 62 55 45 39 40 43 41 36 33 35 36 35
52 50 46 40 34 28 23 20 16 12 7 5 4 4 4 3 4 5 6 10 16 27 41 53 61 68 75 80 78 73 66 60 53 47 43 41 37 33 31 32 36 39 40
65 56 45 35 27 18 10 8 8 7 6 5 4 3 3 3 4 4 5 5 8 16 26 38 48 55 62 71 76 73 65 58 54 49 45 41 34 29 26 26 31 37 38
61 51 37 30 24 16 7 5 6 7 6 5 5 5 5 5 4 4 3 3 3 6 12 21 30 40 50 60 69 72 67 62 60 54 45 38 33 27 20 15 19 25 27
47 38 31 31 32 26 18 15 14 11 8 7 6 6 6 6 5 3 2 2 1 1 4 7 14 26 38 47 57 65 67 67 65 57 46 36 31 27 19 13 15 19 20
33 29 29 39 48 47 40 33 26 17 12 9 8 7 6 4 3 1 1 1 0 0 1 2 7 16 26 35 45 53 59 64 65 58 47 39 33 27 22 21 23 22 19
26 24 30 46 60 64 57 47 35 23 15 12 9 7 4 2 1 0 0 0 0 0 1 2 5 11 20 29 38 45 51 58 61 56 47 42 36 29 27 29 30 27 21

GEFSSE_con_probscp_048.txt.gz
Probability
0 0 0 0 0 0 0 0 0 0 0 0 0 0 0 0 0 0 0 0 0 0 0 0 0 0 0 0 0 0 0 0 0 0 0 0 0 0 0 0 0 0 0
0 0 0 0 0 0 0 0 0 0 0 0 0 0 0 0 0 0 0 0 0 0 0 0 0 0 0 0 0 0 0 0 0 0 0 0 0 0 0 0 0 0 0
0 0 0 0 0 0 0 0 0 0 0 0 0 0 0 0 0 0 0 0 0 0 0 0 0 0 0 0 0 0 0 0 0 0 0 0 0 0 0 0 0 0 0
0 0 0 0 0 0 0 0 0 0 0 0 0 0 0 0 0 0 0 0 0 0 0 0 0 0 0 0 0 0 0 0 0 0 0 0 0 0 0 0 0 0 0
0 0 0 0 0 0 0 0 0 0 0 0 0 0 0 0 0 0 0 0 0 0 0 0 0 0 0 0 0 0 0 0 0 0 0 0 0 0 0 0 0 0 0
0 0 0 0 0 0 0 0 0 0 0 0 0 0 0 0 0 0 0 0 0 0 0 0 0 0 0 0 0 0 0 0 0 0 0 0 0 0 0 0 0 0 0
1 0 0 0 0 0 0 0 0 0 0 0 0 0 0 0 0 0 0 0 0 0 0 0 0 0 0 0 0 0 0 0 0 0 0 0 1 2 2 1 0 0 0
5 2 0 0 0 0 0 0 0 0 0 0 0 0 0 0 0 0 0 0 0 0 0 0 0 0 0 0 0 1 1 0 0 0 0 2 8 13 11 5 1 0 0
10 6 1 0 0 0 0 0 0 0 0 0 0 0 0 0 0 2 4 5 4 3 2 3 3 3 4 4 4 4 3 2 0 0 0 7 23 33 28 16 7 2 0
13 8 3 1 0 0 0 0 0 1 2 1 1 1 1 0 4 13 20 18 14 11 12 13 14 15 14 14 13 12 9 5 1 0 1 15 43 57 48 32 16 5 1
12 8 6 6 3 0 3 6 5 5 8 7 7 10 11 7 10 25 37 38 35 35 36 35 34 32 27 23 24 25 20 10 2 0 7 30 63 75 64 46 26 10 3
9 8 14 20 13 4 13 22 15 15 25 23 20 30 34 23 14 23 43 56 61 63 61 56 49 43 36 26 29 41 36 19 6 4 18 52 80 86 76 58 36 16 6
9 9 22 36 28 14 26 37 27 27 46 46 40 52 59 47 27 26 48 68 75 75 70 62 56 50 41 27 28 48 51 31 19 19 37 69 89 91 83 67 44 22 10
15 16 32 53 48 32 37 45 36 35 52 60 61 67 73 70 55 50 63 75 77 75 70 64 63 62 51 36 34 49 58 45 37 44 60 79 91 90 84 72 51 29 18
31 34 50 69 69 57 53 55 48 44 52 64 72 75 80 83 78 73 76 79 77 74 70 67 68 70 65 54 50 54 57 52 50 61 76 86 89 88 84 73 55 38 29
53 58 71 82 83 78 71 67 62 58 60 67 74 78 80 83 82 78 75 75 72 67 65 62 60 65 67 65 64 61 56 51 54 65 79 86 87 86 84 76 63 52 45
74 80 85 87 89 88 82 77 71 67 69 74 77 79 79 77 73 68 64 60 57 54 55 52 51 56 61 64 67 64 58 55 57 66 75 80 81 81 81 79 72 66 62
91 93 91 90 92 91 86 80 71 67 70 73 73 73 73 68 60 54 49 43 40 39 39 38 42 48 52 55 59 60 59 59 61 65 68 70 72 71 70 71 73 72 71
96 95 93 93 95 93 87 77 66 62 62 58 56 59 60 51 42 38 34 27 25 26 24 25 31 37 40 42 44 49 54 59 61 60 58 57 56 54 51 55 66 71 71
94 94 94 94 93 89 81 69 59 55 49 40 41 46 43 32 25 22 19 15 14 14 14 16 20 24 28 31 32 35 43 51 56 55 50 45 41 39 36 40 54 64 66
90 92 92 90 87 82 74 64 58 53 39 28 31 35 29 19 14 11 9 8 7 6 7 9 12 14 18 22 24 25 30 38 45 50 49 42 38 36 32 34 43 53 56
89 90 89 85 81 79 72 62 57 51 34 23 26 29 24 16 11 8 7 6 4 3 4 5 8 9 11 15 19 20 21 24 32 40 46 45 44 43 38 34 38 44 46
89 88 86 84 83 81 74 64 60 55 40 30 32 36 32 21 13 10 9 7 5 4 4 4 5 6 6 8 13 17 17 17 21 26 33 39 46 48 42 36 35 37 38
82 82 83 85 86 84 78 73 73 68 58 51 50 50 43 30 19 15 14 12 10 7 5 4 3 3 4 5 7 11 13 12 12 13 17 26 38 46 43 36 31 31 33
72 73 76 82 86 86 84 82 83 81 76 73 69 62 53 41 31 26 23 21 17 12 8 6 3 3 4 4 4 5 7 7 8 6 6 14 27 37 42 39 33 33 35
67 66 70 79 85 87 86 85 85 86 84 83 79 70 59 50 42 34 30 28 22 15 11 7 3 1 2 4 3 3 4 5 6 4 3 9 18 30 41 45 41 38 39

GEFSSE_con_probscp_054.txt.gz
Probability
0 0 0 0 0 0 0 0 0 0 0 0 0 0 0 0 0 0 0 0 0 0 0 0 0 0 0 0 0 0 0 0 0 0 0 0 0 0 0 0 0 0 0
0 0 0 0 0 0 0 0 0 0 0 0 0 0 0 0 0 0 0 0 0 0 0 0 0 0 0 0 0 0 0 0 0 0 0 0 0 0 0 0 0 0 0
0 0 0 0 0 0 0 0 0 0 0 0 0 0 0 0 0 0 0 0 0 0 0 0 0 0 0 0 0 0 0 0 0 0 0 0 0 0 0 0 0 0 0
0 0 1 1 0 0 0 0 0 0 0 0 0 0 0 0 0 0 0 0 0 0 0 0 0 0 0 0 0 0 0 0 0 0 0 0 0 0 0 0 0 0 0
0 1 3 3 2 0 0 0 0 0 0 0 0 0 0 0 0 0 0 0 0 0 0 0 0 0 0 0 0 0 0 0 0 0 0 0 0 0 0 0 0 0 0
0 1 4 6 3 1 0 0 0 0 0 0 0 0 0 0 0 0 0 0 0 0 0 0 0 0 0 0 0 0 0 0 0 0 0 0 0 0 0 0 0 0 0
1 3 6 8 5 1 0 0 0 0 0 0 0 0 0 0 0 0 0 0 0 0 0 0 0 0 0 0 0 0 0 0 0 0 0 0 0 0 0 0 0 0 0
3 5 7 8 6 4 3 2 1 0 0 0 0 0 0 0 0 0 0 0 0 0 0 0 0 0 0 0 0 0 0 0 0 0 0 0 0 0 0 0 0 0 0
2 5 7 7 6 5 5 3 1 0 0 0 0 0 0 0 0 0 0 0 0 0 0 0 0 0 0 0 0 0 0 0 0 0 0 0 0 0 0 1 2 2 1
2 5 7 6 5 4 3 2 1 0 0 0 0 0 0 0 0 0 0 0 0 0 1 2 2 1 0 0 0 0 0 0 0 0 0 0 0 0 1 4 8 8 6
4 5 6 5 4 3 1 1 0 0 0 0 0 0 0 0 0 0 0 0 1 1 3 6 7 6 4 3 2 2 3 2 0 0 0 0 0 0 2 8 16 18 14
7 6 5 5 4 3 3 1 0 0 0 1 1 1 1 1 0 0 0 1 3 3 3 6 9 10 10 10 9 9 9 6 2 1 2 2 1 1 3 13 24 28 25
14 9 6 6 5 4 4 3 1 1 2 3 2 2 2 2 1 0 1 1 2 3 4 5 8 11 13 15 13 12 11 8 5 4 4 3 2 3 7 20 33 35 31
30 21 11 8 8 6 5 5 5 4 5 6 4 2 4 4 2 1 0 1 1 3 5 5 6 8 9 10 9 7 6 6 7 8 7 6 6 8 14 28 39 39 31
50 39 26 20 17 13 13 15 14 12 12 11 9 8 11 11 7 3 1 1 2 3 4 4 4 4 4 3 2 2 3 4 7 10 9 8 8 13 21 32 42 39 30
67 60 53 47 39 34 35 35 29 24 21 19 18 20 23 22 16 9 5 3 3 3 2 1 1 1 1 0 0 1 3 3 5 8 10 9 9 14 23 32 36 35 30
75 75 75 71 65 61 61 57 49 40 35 31 29 30 33 31 24 15 9 5 4 4 1 0 0 0 0 0 1 1 2 3 3 4 7 8 9 15 21 25 27 27 27
73 75 77 78 76 75 74 70 63 54 45 39 36 34 35 33 26 18 11 7 6 5 2 0 0 0 0 0 0 0 0 1 2 2 3 4 8 13 17 17 18 21 23
64 65 68 72 73 72 70 67 61 51 41 36 32 29 29 27 22 16 11 8 6 4 1 0 0 0 0 0 0 0 0 0 0 0 0 1 4 8 10 11 13 18 22
56 55 57 60 60 58 57 54 47 36 27 22 20 18 18 16 14 11 8 6 3 2 0 0 0 0 0 0 0 0 0 0 0 0 0 1 3 4 4 5 9 15 18
45 44 42 41 40 39 39 37 30 21 14 11 9 8 9 8 7 7 5 2 1 0 0 0 0 0 0 0 0 0 0 0 0 0 0 0 1 1 1 1 4 7 9
32 30 25 23 22 21 20 19 15 11 9 7 5 4 5 5 4 4 3 1 0 0 0 0 0 0 0 0 0 0 0 0 0 0 0 0 0 0 0 0 1 2 3
20 19 15 12 11 10 8 6 6 8 11 9 6 4 4 4 3 3 2 1 0 0 0 0 0 0 0 0 0 0 0 0 0 0 0 0 0 0 0 0 1 2 3
13 13 10 7 6 5 4 4 6 11 14 13 8 5 4 3 3 3 3 2 1 0 0 0 0 0 0 0 0 0 0 0 0 0 0 0 0 0 0 0 1 2 3
7 7 6 4 3 3 3 5 8 11 13 12 8 4 3 3 3 4 5 4 2 0 0 0 0 0 0 0 0 0 0 0 0 0 0 0 0 0 0 0 0 1 1
3 3 3 3 2 2 3 5 8 10 10 9 6 3 2 3 3 4 5 5 3 1 0 0 0 0 0 0 0 0 0 0 0 0 0 0 0 0 0 0 0 0 0

GEFSSE_con_probscp_060.txt.gz
Probability
0 0 0 0 0 0 0 0 0 0 0 0 0 0 0 0 0 0 0 0 0 0 0 0 0 0 0 0 0 0 0 0 0 0 0 0 0 0 0 0 0 0 0
0 0 0 0 0 0 0 0 0 0 0 0 0 0 0 0 0 0 0 0 0 0 0 0 0 0 0 0 0 0 0 0 0 0 0 0 0 0 0 0 0 0 0
0 0 0 0 0 0 0 0 0 0 0 0 0 0 0 0 0 0 0 0 0 0 0 0 0 0 0 0 0 0 0 0 0 0 0 0 0 0 0 0 0 0 0
0 0 0 0 0 0 0 0 0 0 0 0 0 0 0 0 0 0 0 0 0 0 0 0 0 0 0 0 0 0 0 0 0 0 0 0 0 0 0 0 0 0 0
0 0 2 4 4 2 0 1 1 0 0 0 0 0 0 0 0 0 0 0 0 0 0 0 0 0 0 0 0 0 0 0 0 0 0 0 0 0 0 0 0 0 0
1 1 6 15 15 8 4 3 2 1 0 1 1 0 0 0 0 0 0 0 0 0 0 0 0 0 0 0 0 0 0 0 0 0 0 0 0 0 0 0 0 0 0
4 5 13 26 28 20 13 8 6 3 2 1 1 0 0 0 0 0 0 0 0 0 0 0 0 0 0 0 0 0 0 0 0 0 0 0 0 0 0 0 0 0 0
13 14 20 30 34 31 26 19 14 9 4 1 1 0 0 0 0 0 0 0 0 0 0 0 0 0 0 0 0 0 0 0 0 0 0 0 0 0 0 0 0 0 0
22 24 27 32 36 38 36 32 25 15 7 2 0 0 0 0 0 0 0 0 0 0 0 0 0 0 0 0 0 0 0 0 0 0 0 0 0 0 0 0 0 0 0
25 28 34 40 41 41 41 38 29 17 7 2 1 0 0 0 0 0 0 0 0 0 0 0 0 0 0 0 0 0 0 0 0 0 0 0 0 0 0 0 0 0 0
27 30 36 43 45 44 42 38 28 16 7 3 1 0 0 1 1 0 0 0 0 0 0 0 0 0 0 0 0 0 0 0 0 0 0 0 0 0 0 1 1 1 0
32 33 37 44 47 48 44 36 27 18 10 4 2 1 2 2 2 1 0 0 0 0 0 0 1 1 0 1 1 1 0 1 1 0 0 0 0 0 1 3 3 3 2
35 38 43 49 51 49 43 35 29 23 15 8 5 5 5 4 2 1 0 0 1 1 0 1 2 2 2 2 2 1 1 1 2 2 1 1 1 1 3 5 5 5 5
37 42 51 55 53 46 40 36 32 28 20 13 11 10 9 6 4 2 1 1 2 2 1 2 3 3 3 3 2 1 0 1 2 3 2 1 1 2 4 5 6 7 9
41 46 54 55 50 43 38 35 33 30 25 19 15 14 13 11 9 6 3 2 3 3 2 2 3 3 4 4 3 1 1 1 2 3 3 1 1 2 3 4 7 10 13
45 49 53 52 46 39 33 31 31 30 28 25 20 17 16 15 14 11 6 3 2 1 2 2 2 2 3 5 5 3 2 2 2 3 3 1 0 1 1 3 7 11 12
47 49 49 47 43 38 32 30 32 32 30 28 24 21 18 15 15 13 9 4 1 1 2 2 3 2 3 3 4 3 1 1 1 1 1 0 0 0 0 1 5 8 8
45 45 42 41 40 37 34 34 37 36 31 27 27 25 20 16 15 13 9 5 3 2 4 5 5 4 2 2 2 2 1 1 1 0 0 0 1 1 1 1 3 6 7
42 40 37 34 33 33 33 34 38 38 30 24 23 22 20 17 15 11 8 5 4 4 5 7 6 5 3 2 1 1 1 1 1 0 0 1 1 1 1 2 3 4 6
36 34 30 26 24 24 24 25 29 30 24 19 17 15 15 14 12 9 7 5 4 4 5 5 4 2 2 2 1 0 0 1 1 0 0 0 0 0 1 1 2 2 2
24 23 20 16 14 14 13 15 17 17 15 13 11 9 8 8 7 6 5 4 4 4 4 3 1 0 1 1 0 0 0 0 0 0 0 0 0 0 0 0 1 1 2
12 11 9 6 6 5 6 8 8 7 7 6 5 4 3 3 3 4 4 4 4 3 3 2 1 0 0 0 0 0 0 0 0 0 0 0 0 0 0 0 0 1 2
5 4 2 1 1 1 2 2 3 2 2 1 1 1 1 1 1 2 3 3 3 3 2 1 0 0 0 0 0 0 0 0 0 0 0 0 0 0 0 0 0 0 1
1 1 0 0 0 0 0 0 0 0 0 0 0 0 0 0 0 1 2 2 2 2 1 0 0 0 0 0 0 0 0 0 0 0 0 0 0 0 0 0 0 0 0
0 0 0 0 0 0 0 0 0 0 0 0 0 0 0 0 0 0 1 1 0 0 0 0 0 0 0 0 0 0 0 0 0 0 0 0 0 0 0 0 0 0 0
0 0 0 0 0 0 0 0 0 0 0 0 0 0 0 0 0 0 0 0 0 0 0 0 0 0 0 0 0 0 0 0 0 0 0 0 0 0 0 0 0 0 0